COSMOS 2459 (731)

Last updated on July 6, 2021, 3:39 p.m. UTC

1 36400U 10007A   21186.55087716 -.00000050  00000-0  00000-0 0  9994
2 36400  65.9617  15.1055 0025590 352.3076  33.9615  2.13108646 88298
UTC
Height (km)
Latitude
Longitude
Inclination
Orbital Period
UTC large
Height (km)
Speed (km/s)
/
Latitude / Longitude
Inclination (degrees)
Orbital Period (minutes)
Azimuth
Elevation
Range (km)
Doppler Factor
iOS Compass Heading
iOS Angle